Weather Roundup
Issued by NWS Chicago, IL

Home | Current Version | Previous Version | Graphics & Text | Print | Product List | Glossary On
Versions: 1 2 3 4 5 6 7 8 9 10 11 12 13 14 15 16 17 18 19 20 21 22 23 24 25 26 27 28 29 30 31 32 33 34 35 36 37 38 39 40 41 42 43 44 45 46 47 48 49 50
000
NZUS59 KLOT 200200
HRRLOT

CHICAGO AREA WEATHER ROUNDUP
NATIONAL WEATHER SERVICE CHICAGO/ROMEOVILLE IL
900 PM CDT FRI SEP 19 2014

NOTE: "FAIR" INDICATES FEW OR NO CLOUDS BELOW 12,000 FEET WITH NO
SIGNIFICANT WEATHER AND/OR OBSTRUCTIONS TO VISIBILITY.

* THESE STATIONS ARE NOT UNDER NWS QUALITY CONTROL. THEY ALSO MAY NOT
  REPORT WEATHER SUCH AS PRECIPITATION OR FOG.

ILZ005-006-012>014-019>023-200300-
NORTHEAST ILLINOIS

CITY           SKY/WX    TMP DP  RH WIND       PRES   REMARKS
OHARE          PTCLDY    65  46  50 S12       29.98F
MIDWAY         MOCLDY    69  48  47 S9        29.99F
AURORA         CLEAR     60  48  64 S8        29.99S
LANSING*       PTCLDY    59  49  70 S7        30.02R
WAUKEGAN       CLEAR     66  46  48 S14       29.94F
DUPAGE AIRPORT CLEAR     62  48  60 S9        29.97F
WHEELING       CLEAR     67  47  48 S15       29.98F
NORTHERLY IS     N/A     66  47  50 SE8         N/A
$$

WIZ051-052-058>065-066-070>072-200300-
SOUTHEAST WISCONSIN

CITY           SKY/WX    TMP DP  RH WIND       PRES   REMARKS
MILWAUKEE      MOCLDY    66  46  48 S13       29.90F
KENOSHA*       CLEAR     64  48  56 S10       29.94F
RACINE*        CLEAR     66  47  50 S12       29.94F
WAUKESHA       CLEAR     63  46  55 S12G17    29.91F
$$

INZ001>003-010>013-019-020-200300-
NORTHWEST INDIANA

CITY           SKY/WX    TMP DP  RH WIND       PRES   REMARKS
GARY*          PTCLDY    64  48  55 SE6       30.02S
MICHIGAN CITY* NOT AVBL
RENSSELAER*    NOT AVBL
VALPARAISO     PTCLDY    61  47  59 S6        30.03F
$$

LMZ740>746-200300-
SOUTHERN LAKE MICHIGAN

STATION/POSITION TIME  SKY/WX   TEMP WIND        PRES    VSBY
                                AIR  DIR/SP/G
                 (UTC)          (F)  (DEG/KT/KT) (MB)    (MI)
HARRISON CRIB    0100            68  180/ 16/ 17   N/A
BURNHAM HARBOR   0200            66  160/  7/ 11   N/A
CALUMET HARBOR   0100            68  180/  7/  9 1014.9R
BURNS HARBOR     NOT AVBL
MICHIGAN CITY    0100            66  150/  7/ 12   N/A
$$

ABBREVIATIONS USED IN REMARKS
   TC - TEMPERATURE IN CELSIUS
  WCI - WIND CHILL INDEX
   HX - HEAT INDEX
  VSB - VISIBILITY
$$


USA.gov is the U.S. government's official web portal to all federal, state and local government web resources and services.